Year,Month,Day,Hour,Minute,Value (Times are PST for temperature in C)
2009,08,28,00,00,16.10
2009,08,28,00,01,16.10
2009,08,28,00,02,16.10
2009,08,28,00,03,16.10
2009,08,28,00,04,16.10
2009,08,28,00,05,16.10
2009,08,28,00,06,16.10
2009,08,28,00,07,16.10
2009,08,28,00,08,16.10
2009,08,28,00,09,16.10
2009,08,28,00,10,16.10
2009,08,28,00,11,16.10
2009,08,28,00,12,16.10
2009,08,28,00,13,16.00
2009,08,28,00,14,16.00
2009,08,28,00,15,16.00
2009,08,28,00,16,16.00
2009,08,28,00,17,15.90
2009,08,28,00,18,15.90
2009,08,28,00,19,15.90
2009,08,28,00,20,15.90
2009,08,28,00,21,15.90
2009,08,28,00,22,15.90
2009,08,28,00,23,15.90
2009,08,28,00,24,15.90
2009,08,28,00,25,15.90
2009,08,28,00,26,15.80
2009,08,28,00,27,15.80
2009,08,28,00,28,15.80
2009,08,28,00,29,15.80
2009,08,28,00,30,15.80
2009,08,28,00,31,15.80
2009,08,28,00,32,15.80
2009,08,28,00,33,15.80
2009,08,28,00,34,15.80
2009,08,28,00,35,15.80
2009,08,28,00,36,15.70
2009,08,28,00,37,15.70
2009,08,28,00,38,15.70
2009,08,28,00,39,15.70
2009,08,28,00,40,15.70
2009,08,28,00,41,15.70
2009,08,28,00,42,15.70
2009,08,28,00,43,15.70
2009,08,28,00,44,15.70
2009,08,28,00,45,15.70
2009,08,28,00,46,15.70
2009,08,28,00,47,15.70
2009,08,28,00,48,15.70
2009,08,28,00,49,15.70
2009,08,28,00,50,15.60
2009,08,28,00,51,15.60
2009,08,28,00,52,15.60
2009,08,28,00,53,15.60
2009,08,28,00,54,15.60
2009,08,28,00,55,15.60
2009,08,28,00,56,15.60
2009,08,28,00,57,15.60
2009,08,28,00,58,15.60
2009,08,28,00,59,15.60
2009,08,28,01,00,15.60
2009,08,28,01,01,15.60
2009,08,28,01,02,15.60
2009,08,28,01,03,15.50
2009,08,28,01,04,15.50
2009,08,28,01,05,15.50
2009,08,28,01,06,15.50
2009,08,28,01,07,15.40
2009,08,28,01,08,15.40
2009,08,28,01,09,15.40
2009,08,28,01,10,15.40
2009,08,28,01,11,15.30
2009,08,28,01,12,15.30
2009,08,28,01,13,15.30
2009,08,28,01,14,15.20
2009,08,28,01,15,15.20
2009,08,28,01,16,15.10
2009,08,28,01,17,15.10
2009,08,28,01,18,15.10
2009,08,28,01,19,15.00
2009,08,28,01,20,15.00
2009,08,28,01,21,15.00
2009,08,28,01,22,15.00
2009,08,28,01,23,15.00
2009,08,28,01,24,15.00
2009,08,28,01,25,15.00
2009,08,28,01,26,15.00
2009,08,28,01,27,15.00
2009,08,28,01,28,15.00
2009,08,28,01,29,15.00
2009,08,28,01,30,15.00
2009,08,28,01,31,15.00
2009,08,28,01,32,15.00
2009,08,28,01,33,15.00
2009,08,28,01,34,15.00
2009,08,28,01,35,14.90
2009,08,28,01,36,14.90
2009,08,28,01,37,14.90
2009,08,28,01,38,14.90
2009,08,28,01,39,14.90
2009,08,28,01,40,14.90
2009,08,28,01,41,14.90
2009,08,28,01,42,14.80
2009,08,28,01,43,14.80
2009,08,28,01,44,14.80
2009,08,28,01,45,14.80
2009,08,28,01,46,14.80
2009,08,28,01,47,14.80
2009,08,28,01,48,14.80
2009,08,28,01,49,14.70
2009,08,28,01,50,14.70
2009,08,28,01,51,14.70
2009,08,28,01,52,14.70
2009,08,28,01,53,14.70
2009,08,28,01,54,14.70
2009,08,28,01,55,14.70
2009,08,28,01,56,14.60
2009,08,28,01,57,14.60
2009,08,28,01,58,14.60
2009,08,28,01,59,14.60
2009,08,28,02,00,14.60
2009,08,28,02,01,14.60
2009,08,28,02,02,14.60
2009,08,28,02,03,14.60
2009,08,28,02,04,14.60
2009,08,28,02,05,14.60
2009,08,28,02,06,14.60
2009,08,28,02,07,14.60
2009,08,28,02,08,14.50
2009,08,28,02,09,14.50
2009,08,28,02,10,14.50
2009,08,28,02,11,14.50
2009,08,28,02,12,14.40
2009,08,28,02,13,14.40
2009,08,28,02,14,14.40
2009,08,28,02,15,14.40
2009,08,28,02,16,14.40
2009,08,28,02,17,14.30
2009,08,28,02,18,14.30
2009,08,28,02,19,14.30
2009,08,28,02,20,14.30
2009,08,28,02,21,14.30
2009,08,28,02,22,14.30
2009,08,28,02,23,14.30
2009,08,28,02,24,14.30
2009,08,28,02,25,14.20
2009,08,28,02,26,14.20
2009,08,28,02,27,14.20
2009,08,28,02,28,14.20
2009,08,28,02,29,14.20
2009,08,28,02,30,14.20
2009,08,28,02,31,14.20
2009,08,28,02,32,14.20
2009,08,28,02,33,14.10
2009,08,28,02,34,14.10
2009,08,28,02,35,14.10
2009,08,28,02,36,14.10
2009,08,28,02,37,14.10
2009,08,28,02,38,14.10
2009,08,28,02,39,14.10
2009,08,28,02,40,14.00
2009,08,28,02,41,14.00
2009,08,28,02,42,14.00
2009,08,28,02,43,14.00
2009,08,28,02,44,13.90
2009,08,28,02,45,13.90
2009,08,28,02,46,13.90
2009,08,28,02,47,13.90
2009,08,28,02,48,13.90
2009,08,28,02,49,13.80
2009,08,28,02,50,13.80
2009,08,28,02,51,13.80
2009,08,28,02,52,13.80
2009,08,28,02,53,13.80
2009,08,28,02,54,13.80
2009,08,28,02,55,13.80
2009,08,28,02,56,13.80
2009,08,28,02,57,13.80
2009,08,28,02,58,13.80
2009,08,28,02,59,13.80
2009,08,28,03,00,13.70
2009,08,28,03,01,13.70
2009,08,28,03,02,13.70
2009,08,28,03,03,13.70
2009,08,28,03,04,13.70
2009,08,28,03,05,13.70
2009,08,28,03,06,13.60
2009,08,28,03,07,13.60
2009,08,28,03,08,13.60
2009,08,28,03,09,13.60
2009,08,28,03,10,13.60
2009,08,28,03,11,13.60
2009,08,28,03,12,13.60
2009,08,28,03,13,13.60
2009,08,28,03,14,13.60
2009,08,28,03,15,13.60
2009,08,28,03,16,13.60
2009,08,28,03,17,13.60
2009,08,28,03,18,13.50
2009,08,28,03,19,13.50
2009,08,28,03,20,13.50
2009,08,28,03,21,13.50
2009,08,28,03,22,13.40
2009,08,28,03,23,13.40
2009,08,28,03,24,13.40
2009,08,28,03,25,13.40
2009,08,28,03,26,13.40
2009,08,28,03,27,13.40
2009,08,28,03,28,13.40
2009,08,28,03,29,13.40
2009,08,28,03,30,13.40
2009,08,28,03,31,13.40
2009,08,28,03,32,13.40
2009,08,28,03,33,13.40
2009,08,28,03,34,13.40
2009,08,28,03,35,13.40
2009,08,28,03,36,13.30
2009,08,28,03,37,13.30
2009,08,28,03,38,13.30
2009,08,28,03,39,13.30
2009,08,28,03,40,13.30
2009,08,28,03,41,13.30
2009,08,28,03,42,13.30
2009,08,28,03,43,13.30
2009,08,28,03,44,13.30
2009,08,28,03,45,13.20
2009,08,28,03,46,13.20
2009,08,28,03,47,13.20
2009,08,28,03,48,13.20
2009,08,28,03,49,13.20
2009,08,28,03,50,13.20
2009,08,28,03,51,13.20
2009,08,28,03,52,13.20
2009,08,28,03,53,13.10
2009,08,28,03,54,13.10
2009,08,28,03,55,13.10
2009,08,28,03,56,13.10
2009,08,28,03,57,13.10
2009,08,28,03,58,13.10
2009,08,28,03,59,13.00
2009,08,28,04,00,13.00
2009,08,28,04,01,13.00
2009,08,28,04,02,12.90
2009,08,28,04,03,12.90
2009,08,28,04,04,12.90
2009,08,28,04,05,12.90
2009,08,28,04,06,12.90
2009,08,28,04,07,12.90
2009,08,28,04,08,12.90
2009,08,28,04,09,12.90
2009,08,28,04,10,12.90
2009,08,28,04,11,12.90
2009,08,28,04,12,12.90
2009,08,28,04,13,12.90
2009,08,28,04,14,12.90
2009,08,28,04,15,12.90
2009,08,28,04,16,12.90
2009,08,28,04,17,12.90
2009,08,28,04,18,12.90
2009,08,28,04,19,12.90
2009,08,28,04,20,12.80
2009,08,28,04,21,12.80
2009,08,28,04,22,12.80
2009,08,28,04,23,12.80
2009,08,28,04,24,12.80
2009,08,28,04,25,12.80
2009,08,28,04,26,12.70
2009,08,28,04,27,12.70
2009,08,28,04,28,12.70
2009,08,28,04,29,12.70
2009,08,28,04,30,12.60
2009,08,28,04,31,12.60
2009,08,28,04,32,12.60
2009,08,28,04,33,12.60
2009,08,28,04,34,12.50
2009,08,28,04,35,12.50
2009,08,28,04,36,12.50
2009,08,28,04,37,12.40
2009,08,28,04,38,12.40
2009,08,28,04,39,12.40
2009,08,28,04,40,12.40
2009,08,28,04,41,12.40
2009,08,28,04,42,12.30
2009,08,28,04,43,12.30
2009,08,28,04,44,12.30
2009,08,28,04,45,12.30
2009,08,28,04,46,12.30
2009,08,28,04,47,12.30
2009,08,28,04,48,12.30
2009,08,28,04,49,12.30
2009,08,28,04,50,12.20
2009,08,28,04,51,12.20
2009,08,28,04,52,12.20
2009,08,28,04,53,12.20
2009,08,28,04,54,12.20
2009,08,28,04,55,12.20
2009,08,28,04,56,12.20
2009,08,28,04,57,12.20
2009,08,28,04,58,12.20
2009,08,28,04,59,12.20
2009,08,28,05,00,12.20
2009,08,28,05,01,12.20
2009,08,28,05,02,12.20
2009,08,28,05,03,12.20
2009,08,28,05,04,12.10
2009,08,28,05,05,12.10
2009,08,28,05,06,12.10
2009,08,28,05,07,12.10
2009,08,28,05,08,12.10
2009,08,28,05,09,12.10
2009,08,28,05,10,12.10
2009,08,28,05,11,12.10
2009,08,28,05,12,12.10
2009,08,28,05,13,12.00
2009,08,28,05,14,12.00
2009,08,28,05,15,12.00
2009,08,28,05,16,12.00
2009,08,28,05,17,12.00
2009,08,28,05,18,12.00
2009,08,28,05,19,12.00
2009,08,28,05,20,12.00
2009,08,28,05,21,12.00
2009,08,28,05,22,12.00
2009,08,28,05,23,12.10
2009,08,28,05,24,12.10
2009,08,28,05,25,12.10
2009,08,28,05,26,12.10
2009,08,28,05,27,12.10
2009,08,28,05,28,12.10
2009,08,28,05,29,12.00
2009,08,28,05,30,12.00
2009,08,28,05,31,12.00
2009,08,28,05,32,12.00
2009,08,28,05,33,12.00
2009,08,28,05,34,12.00
2009,08,28,05,35,12.00
2009,08,28,05,36,11.90
2009,08,28,05,37,11.90
2009,08,28,05,38,11.90
2009,08,28,05,39,11.90
2009,08,28,05,40,11.90
2009,08,28,05,41,11.90
2009,08,28,05,42,11.90
2009,08,28,05,43,11.80
2009,08,28,05,44,11.80
2009,08,28,05,45,11.80
2009,08,28,05,46,11.80
2009,08,28,05,47,11.80
2009,08,28,05,48,11.70
2009,08,28,05,49,11.70
2009,08,28,05,50,11.70
2009,08,28,05,51,11.70
2009,08,28,05,52,11.70
2009,08,28,05,53,11.70
2009,08,28,05,54,11.60
2009,08,28,05,55,11.60
2009,08,28,05,56,11.60
2009,08,28,05,57,11.60
2009,08,28,05,58,11.60
2009,08,28,05,59,11.60
2009,08,28,06,00,11.60
2009,08,28,06,01,11.60
2009,08,28,06,02,11.60
2009,08,28,06,03,11.60
2009,08,28,06,04,11.50
2009,08,28,06,05,11.50
2009,08,28,06,06,11.50
2009,08,28,06,07,11.50
2009,08,28,06,08,11.40
2009,08,28,06,09,11.40
2009,08,28,06,10,11.40
2009,08,28,06,11,11.40
2009,08,28,06,12,11.40
2009,08,28,06,13,11.40
2009,08,28,06,14,11.40
2009,08,28,06,15,11.40
2009,08,28,06,16,11.40
2009,08,28,06,17,11.40
2009,08,28,06,18,11.40
2009,08,28,06,19,11.40
2009,08,28,06,20,11.40
2009,08,28,06,21,11.40
2009,08,28,06,22,11.40
2009,08,28,06,23,11.40
2009,08,28,06,24,11.40
2009,08,28,06,25,11.40
2009,08,28,06,26,11.40
2009,08,28,06,27,11.40
2009,08,28,06,28,11.40
2009,08,28,06,29,11.40
2009,08,28,06,30,11.40
2009,08,28,06,31,11.40
2009,08,28,06,32,11.40
2009,08,28,06,33,11.40
2009,08,28,06,34,11.40
2009,08,28,06,35,11.40
2009,08,28,06,36,11.40
2009,08,28,06,37,11.40
2009,08,28,06,38,11.40
2009,08,28,06,39,11.40
2009,08,28,06,40,11.40
2009,08,28,06,41,11.40
2009,08,28,06,42,11.40
2009,08,28,06,43,11.40
2009,08,28,06,44,11.50
2009,08,28,06,45,11.50
2009,08,28,06,46,11.50
2009,08,28,06,47,11.50
2009,08,28,06,48,11.60
2009,08,28,06,49,11.60
2009,08,28,06,50,11.70
2009,08,28,06,51,11.70
2009,08,28,06,52,11.80
2009,08,28,06,53,11.80
2009,08,28,06,54,11.90
2009,08,28,06,55,11.90
2009,08,28,06,56,11.90
2009,08,28,06,57,12.00
2009,08,28,06,58,12.00
2009,08,28,06,59,12.10
2009,08,28,07,00,12.10
2009,08,28,07,01,12.20
2009,08,28,07,02,12.20
2009,08,28,07,03,12.20
2009,08,28,07,04,12.20
2009,08,28,07,05,12.20
2009,08,28,07,06,12.30
2009,08,28,07,07,12.30
2009,08,28,07,08,12.30
2009,08,28,07,09,12.30
2009,08,28,07,10,12.30
2009,08,28,07,11,12.30
2009,08,28,07,12,12.30
2009,08,28,07,13,12.40
2009,08,28,07,14,12.40
2009,08,28,07,15,12.40
2009,08,28,07,16,12.40
2009,08,28,07,17,12.40
2009,08,28,07,18,12.40
2009,08,28,07,19,12.50
2009,08,28,07,20,12.50
2009,08,28,07,21,12.60
2009,08,28,07,22,12.60
2009,08,28,07,23,12.60
2009,08,28,07,24,12.60
2009,08,28,07,25,12.70
2009,08,28,07,26,12.70
2009,08,28,07,27,12.70
2009,08,28,07,28,12.70
2009,08,28,07,29,12.70
2009,08,28,07,30,12.70
2009,08,28,07,31,12.70
2009,08,28,07,32,12.70
2009,08,28,07,33,12.70
2009,08,28,07,34,12.70
2009,08,28,07,35,12.70
2009,08,28,07,36,12.70
2009,08,28,07,37,12.80
2009,08,28,07,38,12.80
2009,08,28,07,39,12.80
2009,08,28,07,40,12.80
2009,08,28,07,41,12.80
2009,08,28,07,42,12.80
2009,08,28,07,43,12.80
2009,08,28,07,44,12.90
2009,08,28,07,45,12.90
2009,08,28,07,46,12.90
2009,08,28,07,47,12.90
2009,08,28,07,48,12.90
2009,08,28,07,49,13.00
2009,08,28,07,50,13.00
2009,08,28,07,51,13.00
2009,08,28,07,52,13.10
2009,08,28,07,53,13.10
2009,08,28,07,54,13.10
2009,08,28,07,55,13.20
2009,08,28,07,56,13.20
2009,08,28,07,57,13.20
2009,08,28,07,58,13.20
2009,08,28,07,59,13.30
2009,08,28,08,00,13.30
2009,08,28,08,01,13.30
2009,08,28,08,02,13.40
2009,08,28,08,03,13.40
2009,08,28,08,04,13.50
2009,08,28,08,05,13.50
2009,08,28,08,06,13.50
2009,08,28,08,07,13.50
2009,08,28,08,08,13.60
2009,08,28,08,09,13.60
2009,08,28,08,10,13.60
2009,08,28,08,11,13.70
2009,08,28,08,12,13.70
2009,08,28,08,13,13.70
2009,08,28,08,14,13.80
2009,08,28,08,15,13.80
2009,08,28,08,16,13.90
2009,08,28,08,17,13.90
2009,08,28,08,18,14.00
2009,08,28,08,19,14.00
2009,08,28,08,20,14.10
2009,08,28,08,21,14.10
2009,08,28,08,22,14.20
2009,08,28,08,23,14.20
2009,08,28,08,24,14.30
2009,08,28,08,25,14.40
2009,08,28,08,26,14.40
2009,08,28,08,27,14.50
2009,08,28,08,28,14.60
2009,08,28,08,29,14.60
2009,08,28,08,30,14.70
2009,08,28,08,31,14.80
2009,08,28,08,32,14.90
2009,08,28,08,33,15.00
2009,08,28,08,34,15.00
2009,08,28,08,35,15.10
2009,08,28,08,36,15.30
2009,08,28,08,37,15.40
2009,08,28,08,38,15.50
2009,08,28,08,39,15.70
2009,08,28,08,40,15.80
2009,08,28,08,41,16.00
2009,08,28,08,42,16.10
2009,08,28,08,43,16.20
2009,08,28,08,44,16.30
2009,08,28,08,45,16.40
2009,08,28,08,46,16.50
2009,08,28,08,47,16.60
2009,08,28,08,48,16.70
2009,08,28,08,49,16.80
2009,08,28,08,50,16.90
2009,08,28,08,51,17.10
2009,08,28,08,52,17.20
2009,08,28,08,53,17.30
2009,08,28,08,54,17.50
2009,08,28,08,55,17.60
2009,08,28,08,56,17.70
2009,08,28,08,57,17.70
2009,08,28,08,58,17.80
2009,08,28,08,59,17.90
2009,08,28,09,00,18.00
2009,08,28,09,01,18.10
2009,08,28,09,02,18.20
2009,08,28,09,03,18.30
2009,08,28,09,04,18.40
2009,08,28,09,05,18.50
2009,08,28,09,06,18.60
2009,08,28,09,07,18.70
2009,08,28,09,08,18.70
2009,08,28,09,09,18.80
2009,08,28,09,10,18.80
2009,08,28,09,11,18.90
2009,08,28,09,12,18.90
2009,08,28,09,13,19.00
2009,08,28,09,14,19.00
2009,08,28,09,15,19.00
2009,08,28,09,16,19.10
2009,08,28,09,17,19.10
2009,08,28,09,18,19.10
2009,08,28,09,19,19.10
2009,08,28,09,20,19.10
2009,08,28,09,21,19.10
2009,08,28,09,22,19.10
2009,08,28,09,23,19.10
2009,08,28,09,24,19.20
2009,08,28,09,25,19.20
2009,08,28,09,26,19.30
2009,08,28,09,27,19.30
2009,08,28,09,28,19.30
2009,08,28,09,29,19.40
2009,08,28,09,30,19.40
2009,08,28,09,31,19.50
2009,08,28,09,32,19.50
2009,08,28,09,33,19.60
2009,08,28,09,34,19.60
2009,08,28,09,35,19.70
2009,08,28,09,36,19.70
2009,08,28,09,37,19.80
2009,08,28,09,38,19.80
2009,08,28,09,39,19.90
2009,08,28,09,40,20.00
2009,08,28,09,41,20.00
2009,08,28,09,42,20.10
2009,08,28,09,43,20.20
2009,08,28,09,44,20.30
2009,08,28,09,45,20.50
2009,08,28,09,46,20.60
2009,08,28,09,47,20.70
2009,08,28,09,48,20.70
2009,08,28,09,49,20.80
2009,08,28,09,50,20.80
2009,08,28,09,51,20.80
2009,08,28,09,52,20.90
2009,08,28,09,53,20.90
2009,08,28,09,54,21.00
2009,08,28,09,55,21.00
2009,08,28,09,56,21.10
2009,08,28,09,57,21.20
2009,08,28,09,58,21.30
2009,08,28,09,59,21.40
2009,08,28,10,00,21.50
2009,08,28,10,01,21.50
2009,08,28,10,02,21.60
2009,08,28,10,03,21.70
2009,08,28,10,04,21.70
2009,08,28,10,05,21.70
2009,08,28,10,06,21.70
2009,08,28,10,07,21.80
2009,08,28,10,08,21.80
2009,08,28,10,09,21.80
2009,08,28,10,10,21.80
2009,08,28,10,11,21.80
2009,08,28,10,12,21.80
2009,08,28,10,13,21.90
2009,08,28,10,14,21.90
2009,08,28,10,15,22.00
2009,08,28,10,16,22.00
2009,08,28,10,17,22.10
2009,08,28,10,18,22.10
2009,08,28,10,19,22.20
2009,08,28,10,20,22.20
2009,08,28,10,21,22.20
2009,08,28,10,22,22.30
2009,08,28,10,23,22.40
2009,08,28,10,24,22.40
2009,08,28,10,25,22.50
2009,08,28,10,26,22.50
2009,08,28,10,27,22.60
2009,08,28,10,28,22.60
2009,08,28,10,29,22.60
2009,08,28,10,30,22.60
2009,08,28,10,31,22.70
2009,08,28,10,32,22.70
2009,08,28,10,33,22.80
2009,08,28,10,34,22.80
2009,08,28,10,35,22.90
2009,08,28,10,36,23.00
2009,08,28,10,37,23.00
2009,08,28,10,38,23.10
2009,08,28,10,39,23.20
2009,08,28,10,40,23.20
2009,08,28,10,41,23.30
2009,08,28,10,42,23.30
2009,08,28,10,43,23.40
2009,08,28,10,44,23.40
2009,08,28,10,45,23.40
2009,08,28,10,46,23.50
2009,08,28,10,47,23.50
2009,08,28,10,48,23.60
2009,08,28,10,49,23.60
2009,08,28,10,50,23.60
2009,08,28,10,51,23.60
2009,08,28,10,52,23.60
2009,08,28,10,53,23.60
2009,08,28,10,54,23.60
2009,08,28,10,55,23.70
2009,08,28,10,56,23.70
2009,08,28,10,57,23.70
2009,08,28,10,58,23.70
2009,08,28,10,59,23.70
2009,08,28,11,00,23.70
2009,08,28,11,01,23.70
2009,08,28,11,02,23.70
2009,08,28,11,03,23.70
2009,08,28,11,04,23.70
2009,08,28,11,05,23.80
2009,08,28,11,06,23.80
2009,08,28,11,07,23.80
2009,08,28,11,08,23.90
2009,08,28,11,09,23.90
2009,08,28,11,10,23.90
2009,08,28,11,11,23.90
2009,08,28,11,12,23.90
2009,08,28,11,13,23.90
2009,08,28,11,14,23.90
2009,08,28,11,15,23.90
2009,08,28,11,16,24.00
2009,08,28,11,17,24.00
2009,08,28,11,18,24.00
2009,08,28,11,19,24.00
2009,08,28,11,20,24.10
2009,08,28,11,21,24.10
2009,08,28,11,22,24.10
2009,08,28,11,23,24.10
2009,08,28,11,24,24.10
2009,08,28,11,25,24.10
2009,08,28,11,26,24.10
2009,08,28,11,27,24.10
2009,08,28,11,28,24.10
2009,08,28,11,29,24.10
2009,08,28,11,30,24.10
2009,08,28,11,31,24.20
2009,08,28,11,32,24.20
2009,08,28,11,33,24.20
2009,08,28,11,34,24.30
2009,08,28,11,35,24.30
2009,08,28,11,36,24.40
2009,08,28,11,37,24.50
2009,08,28,11,38,24.50
2009,08,28,11,39,24.50
2009,08,28,11,40,24.60
2009,08,28,11,41,24.60
2009,08,28,11,42,24.60
2009,08,28,11,43,24.70
2009,08,28,11,44,24.70
2009,08,28,11,45,24.70
2009,08,28,11,46,24.70
2009,08,28,11,47,24.70
2009,08,28,11,48,24.70
2009,08,28,11,49,24.70
2009,08,28,11,50,24.70
2009,08,28,11,51,24.70
2009,08,28,11,52,24.70
2009,08,28,11,53,24.80
2009,08,28,11,54,24.80
2009,08,28,11,55,24.80
2009,08,28,11,56,24.80
2009,08,28,11,57,24.90
2009,08,28,11,58,24.90
2009,08,28,11,59,25.00
2009,08,28,12,00,25.10
2009,08,28,12,01,25.10
2009,08,28,12,02,25.10
2009,08,28,12,03,25.20
2009,08,28,12,04,25.20
2009,08,28,12,05,25.20
2009,08,28,12,06,25.30
2009,08,28,12,07,25.30
2009,08,28,12,08,25.30
2009,08,28,12,09,25.30
2009,08,28,12,10,25.30
2009,08,28,12,11,25.30
2009,08,28,12,12,25.30
2009,08,28,12,13,25.30
2009,08,28,12,14,25.40
2009,08,28,12,15,25.40
2009,08,28,12,16,25.40
2009,08,28,12,17,25.40
2009,08,28,12,18,25.50
2009,08,28,12,19,25.50
2009,08,28,12,20,25.60
2009,08,28,12,21,25.60
2009,08,28,12,22,25.60
2009,08,28,12,23,25.60
2009,08,28,12,24,25.60
2009,08,28,12,25,25.60
2009,08,28,12,26,25.60
2009,08,28,12,27,25.50
2009,08,28,12,28,25.40
2009,08,28,12,29,25.30
2009,08,28,12,30,25.30
2009,08,28,12,31,25.20
2009,08,28,12,32,25.10
2009,08,28,12,33,25.00
2009,08,28,12,34,24.90
2009,08,28,12,35,24.80
2009,08,28,12,36,24.80
2009,08,28,12,37,24.70
2009,08,28,12,38,24.70
2009,08,28,12,39,24.70
2009,08,28,12,40,24.70
2009,08,28,12,41,24.70
2009,08,28,12,42,24.70
2009,08,28,12,43,24.60
2009,08,28,12,44,24.50
2009,08,28,12,45,24.50
2009,08,28,12,46,24.40
2009,08,28,12,47,24.30
2009,08,28,12,48,24.10
2009,08,28,12,49,24.00
2009,08,28,12,50,23.90
2009,08,28,12,51,23.80
2009,08,28,12,52,23.80
2009,08,28,12,53,23.80
2009,08,28,12,54,23.80
2009,08,28,12,55,23.80
2009,08,28,12,56,23.80
2009,08,28,12,57,23.80
2009,08,28,12,58,23.80
2009,08,28,12,59,23.80
2009,08,28,13,00,23.80
2009,08,28,13,01,23.90
2009,08,28,13,02,23.90
2009,08,28,13,03,23.90
2009,08,28,13,04,24.00
2009,08,28,13,05,24.10
2009,08,28,13,06,24.10
2009,08,28,13,07,24.10
2009,08,28,13,08,24.20
2009,08,28,13,09,24.20
2009,08,28,13,10,24.30
2009,08,28,13,11,24.30
2009,08,28,13,12,24.30
2009,08,28,13,13,24.20
2009,08,28,13,14,24.20
2009,08,28,13,15,24.20
2009,08,28,13,16,24.20
2009,08,28,13,17,24.20
2009,08,28,13,18,24.20
2009,08,28,13,19,24.10
2009,08,28,13,20,24.10
2009,08,28,13,21,24.10
2009,08,28,13,22,24.10
2009,08,28,13,23,24.10
2009,08,28,13,24,24.10
2009,08,28,13,25,24.10
2009,08,28,13,26,24.10
2009,08,28,13,27,24.20
2009,08,28,13,28,24.20
2009,08,28,13,29,24.20
2009,08,28,13,30,24.30
2009,08,28,13,31,24.30
2009,08,28,13,32,24.40
2009,08,28,13,33,24.40
2009,08,28,13,34,24.40
2009,08,28,13,35,24.40
2009,08,28,13,36,24.40
2009,08,28,13,37,24.40
2009,08,28,13,38,24.40
2009,08,28,13,39,24.40
2009,08,28,13,40,24.40
2009,08,28,13,41,24.40
2009,08,28,13,42,24.40
2009,08,28,13,43,24.40
2009,08,28,13,44,24.50
2009,08,28,13,45,24.50
2009,08,28,13,46,24.40
2009,08,28,13,47,24.40
2009,08,28,13,48,24.40
2009,08,28,13,49,24.40
2009,08,28,13,50,24.50
2009,08,28,13,51,24.50
2009,08,28,13,52,24.60
2009,08,28,13,53,24.70
2009,08,28,13,54,24.70
2009,08,28,13,55,24.80
2009,08,28,13,56,24.80
2009,08,28,13,57,24.80
2009,08,28,13,58,24.90
2009,08,28,13,59,24.90
2009,08,28,14,00,24.90
2009,08,28,14,01,24.90
2009,08,28,14,02,24.90
2009,08,28,14,03,24.90
2009,08,28,14,04,24.90
2009,08,28,14,05,24.90
2009,08,28,14,06,25.00
2009,08,28,14,07,25.00
2009,08,28,14,08,25.00
2009,08,28,14,09,25.00
2009,08,28,14,10,25.00
2009,08,28,14,11,25.00
2009,08,28,14,12,24.90
2009,08,28,14,13,24.90
2009,08,28,14,14,24.90
2009,08,28,14,15,24.80
2009,08,28,14,16,24.80
2009,08,28,14,17,24.80
2009,08,28,14,18,24.80
2009,08,28,14,19,24.80
2009,08,28,14,20,24.80
2009,08,28,14,21,24.80
2009,08,28,14,22,24.80
2009,08,28,14,23,24.80
2009,08,28,14,24,24.80
2009,08,28,14,25,24.90
2009,08,28,14,26,24.90
2009,08,28,14,27,24.90
2009,08,28,14,28,24.90
2009,08,28,14,29,24.90
2009,08,28,14,30,24.90
2009,08,28,14,31,24.90
2009,08,28,14,32,24.90
2009,08,28,14,33,24.90
2009,08,28,14,34,25.00
2009,08,28,14,35,25.00
2009,08,28,14,36,25.00
2009,08,28,14,37,25.10
2009,08,28,14,38,25.10
2009,08,28,14,39,25.10
2009,08,28,14,40,25.10
2009,08,28,14,41,25.10
2009,08,28,14,42,25.10
2009,08,28,14,43,25.00
2009,08,28,14,44,24.90
2009,08,28,14,45,24.90
2009,08,28,14,46,24.80
2009,08,28,14,47,24.80
2009,08,28,14,48,24.70
2009,08,28,14,49,24.70
2009,08,28,14,50,24.60
2009,08,28,14,51,24.60
2009,08,28,14,52,24.60
2009,08,28,14,53,24.60
2009,08,28,14,54,24.60
2009,08,28,14,55,24.60
2009,08,28,14,56,24.60
2009,08,28,14,57,24.60
2009,08,28,14,58,24.60
2009,08,28,14,59,24.60
2009,08,28,15,00,24.60
2009,08,28,15,01,24.60
2009,08,28,15,02,24.70
2009,08,28,15,03,24.70
2009,08,28,15,04,24.70
2009,08,28,15,05,24.70
2009,08,28,15,06,24.70
2009,08,28,15,07,24.70
2009,08,28,15,08,24.70
2009,08,28,15,09,24.70
2009,08,28,15,10,24.70
2009,08,28,15,11,24.80
2009,08,28,15,12,24.80
2009,08,28,15,13,24.80
2009,08,28,15,14,24.80
2009,08,28,15,15,24.80
2009,08,28,15,16,24.80
2009,08,28,15,17,24.80
2009,08,28,15,18,24.80
2009,08,28,15,19,24.70
2009,08,28,15,20,24.70
2009,08,28,15,21,24.70
2009,08,28,15,22,24.70
2009,08,28,15,23,24.70
2009,08,28,15,24,24.70
2009,08,28,15,25,24.70
2009,08,28,15,26,24.70
2009,08,28,15,27,24.70
2009,08,28,15,28,24.70
2009,08,28,15,29,24.70
2009,08,28,15,30,24.70
2009,08,28,15,31,24.80
2009,08,28,15,32,24.80
2009,08,28,15,33,24.70
2009,08,28,15,34,24.70
2009,08,28,15,35,24.60
2009,08,28,15,36,24.60
2009,08,28,15,37,24.50
2009,08,28,15,38,24.50
2009,08,28,15,39,24.40
2009,08,28,15,40,24.40
2009,08,28,15,41,24.40
2009,08,28,15,42,24.40
2009,08,28,15,43,24.30
2009,08,28,15,44,24.30
2009,08,28,15,45,24.30
2009,08,28,15,46,24.20
2009,08,28,15,47,24.20
2009,08,28,15,48,24.20
2009,08,28,15,49,24.20
2009,08,28,15,50,24.20
2009,08,28,15,51,24.10
2009,08,28,15,52,24.10
2009,08,28,15,53,24.10
2009,08,28,15,54,24.10
2009,08,28,15,55,24.00
2009,08,28,15,56,23.90
2009,08,28,15,57,23.90
2009,08,28,15,58,23.90
2009,08,28,15,59,23.80
2009,08,28,16,00,23.80
2009,08,28,16,01,23.80
2009,08,28,16,02,23.80
2009,08,28,16,03,23.80
2009,08,28,16,04,23.80
2009,08,28,16,05,23.80
2009,08,28,16,06,23.80
2009,08,28,16,07,23.70
2009,08,28,16,08,23.70
2009,08,28,16,09,23.70
2009,08,28,16,10,23.70
2009,08,28,16,11,23.70
2009,08,28,16,12,23.70
2009,08,28,16,13,23.70
2009,08,28,16,14,23.70
2009,08,28,16,15,23.70
2009,08,28,16,16,23.70
2009,08,28,16,17,23.70
2009,08,28,16,18,23.70
2009,08,28,16,19,23.70
2009,08,28,16,20,23.80
2009,08,28,16,21,23.80
2009,08,28,16,22,23.80
2009,08,28,16,23,23.80
2009,08,28,16,24,23.80
2009,08,28,16,25,23.80
2009,08,28,16,26,23.70
2009,08,28,16,27,23.70
2009,08,28,16,28,23.70
2009,08,28,16,29,23.70
2009,08,28,16,30,23.70
2009,08,28,16,31,23.70
2009,08,28,16,32,23.70
2009,08,28,16,33,23.70
2009,08,28,16,34,23.70
2009,08,28,16,35,23.80
2009,08,28,16,36,23.80
2009,08,28,16,37,23.80
2009,08,28,16,38,23.80
2009,08,28,16,39,23.80
2009,08,28,16,40,23.80
2009,08,28,16,41,23.80
2009,08,28,16,42,23.80
2009,08,28,16,43,23.80
2009,08,28,16,44,23.80
2009,08,28,16,45,23.80
2009,08,28,16,46,23.80
2009,08,28,16,47,23.80
2009,08,28,16,48,23.80
2009,08,28,16,49,23.80
2009,08,28,16,50,23.80
2009,08,28,16,51,23.80
2009,08,28,16,52,23.80
2009,08,28,16,53,23.70
2009,08,28,16,54,23.70
2009,08,28,16,55,23.60
2009,08,28,16,56,23.60
2009,08,28,16,57,23.60
2009,08,28,16,58,23.50
2009,08,28,16,59,23.40
2009,08,28,17,00,23.30
2009,08,28,17,01,23.30
2009,08,28,17,02,23.20
2009,08,28,17,03,23.20
2009,08,28,17,04,23.10
2009,08,28,17,05,23.10
2009,08,28,17,06,23.10
2009,08,28,17,07,23.00
2009,08,28,17,08,23.00
2009,08,28,17,09,23.00
2009,08,28,17,10,22.90
2009,08,28,17,11,22.90
2009,08,28,17,12,22.90
2009,08,28,17,13,22.80
2009,08,28,17,14,22.80
2009,08,28,17,15,22.80
2009,08,28,17,16,22.80
2009,08,28,17,17,22.70
2009,08,28,17,18,22.70
2009,08,28,17,19,22.70